Weather Roundup
Issued by NWS Springfield, MO

Home | Current Version | Previous Version | Text Only | Print | Product List | Glossary On
Versions: 1 2 3 4 5 6 7 8 9 10 11 12 13 14 15 16 17 18 19 20 21 22 23 24 25 26 27 28 29 30 31 32 33 34 35 36 37 38 39 40 41 42 43 44 45 46 47 48 49 50
000
NZUS99 KSGF 121457
HRRSGF

HOURLY WEATHER
NATIONAL WEATHER SERVICE SPRINGFIELD MO
900 AM CST FRI FEB 12 2016

......SGF CWA......

CITY           SKY/WX    TMP DP  RH WIND       PRES   REMARKS
SPRINGFIELD    MOSUNNY   35  25  66 N13       30.27R WCI  26
JOPLIN         SUNNY     34  25  69 N10       30.32R WCI  26
WEST PLAINS    PTSUNNY   37  23  56 NW9       30.23R WCI  30
ROLLA          CLOUDY    27  23  85 N8        30.25R WCI  19
BRANSON        MOSUNNY   39  25  56 NW10G16   30.25R WCI  32

......SURROUNDING SGF CWA......

CITY           SKY/WX    TMP DP  RH WIND       PRES   REMARKS
CHANUTE        SUNNY     33  25  72 N17G24    30.36R WCI  22
PARSONS        SUNNY     35  26  69 N17G23    30.35R WCI  25
COFFEYVILLE    SUNNY     35  27  72 N18       30.35R WCI  24
EMPORIA        CLOUDY    29  26  89 N10       30.38R WCI  20
HARRISON AR    SUNNY     43  26  51 NW15      30.24R

......KANSAS AND MISSOURI......

CITY           SKY/WX    TMP DP  RH WIND       PRES   REMARKS
KANSAS CTY INT PTSUNNY   31  23  72 N15       30.36R WCI  20
DOWNTOWN KC    MOSUNNY   34  21  60 N14G20    30.36R WCI  24
SEDALIA        CLOUDY    30  21  69 N13       30.34R WCI  20
ST JOSEPH      CLOUDY    29  21  72 N15       30.40R WCI  18
ST LOUIS       CLOUDY    28  22  78 W6        30.28R WCI  22
KIRKSVILLE     CLOUDY    24  18  77 NW14G21   30.30R WCI  12
WICHITA        CLOUDY    32  28  85 NE20      30.37R FOG     WCI  20
TOPEKA         CLOUDY    32  24  72 N18       30.41R WCI  20
OLATHE         MOSUNNY   31  21  66 N18       30.35R WCI  19

......TENNESSEE......

CITY           SKY/WX    TMP DP  RH WIND       PRES   REMARKS
MEMPHIS        NOT AVBL
NASHVILLE      CLOUDY    36  22  56 NE3       30.19S

......ARKANSAS.......

CITY           SKY/WX    TMP DP  RH WIND       PRES   REMARKS
FAYETTEVILLE   SUNNY     42  31  64 MISG      30.27R
FT SMITH       SUNNY     42  26  53 SW3       30.29R
LITTLE ROCK    MOSUNNY   42  27  55 NW10      30.26R

......OKLAHOMA.......

CITY           SKY/WX    TMP DP  RH WIND       PRES   REMARKS
TULSA          PTSUNNY   39  31  72 N10       30.32R WCI  32
PONCA CITY     CLOUDY    37  30  75 N18       30.34R WCI  27
MCALESTER      SUNNY     41  32  70 CALM      30.30R
OKLAHOMA CITY  MOSUNNY   42  34  73 N6        30.30R

......IOWA............

CITY           SKY/WX    TMP DP  RH WIND       PRES   REMARKS
DES MOINES     NOT AVBL
QUAD CITIES    LGT SNOW  21  14  74 NW22G32   30.25R WCI   5

......ILLINOIS........

CITY           SKY/WX    TMP DP  RH WIND       PRES   REMARKS
QUINCY         NOT AVBL
CHICAGO        FLURRIES  19  10  68 W15G25    30.14R WCI   5



USA.gov is the U.S. government's official web portal to all federal, state and local government web resources and services.